Location: Asheville, NC
(35.6000°N, 82.5500°W)
Time: 14:37:06
(UTC-04:00)

RS-15 - Pass Details

Date: 10 January 2018
Orbit: 1889 x 2156 km, 64.8° (Epoch: 19 April)

Event Time Altitude Azimuth Distance (km) Brightness Sun altitude
Rises 21:11:59 0° 323° (NW) 5,524 10.8 -43.3°
Reaches altitude 10° 21:15:46 10° 316° (NW) 4,482 10.3 -44.1°
Maximum altitude 21:25:45 37° 255° (WSW) 2,785 9.0 -46.1°
Drops below altitude 10° 21:35:22 10° 193° (SSW) 4,296 9.8 -48.1°
Sets 21:38:56 0° 185° (S) 5,271 10.3 -48.8°
